DW8306 Weather Reports


time (UTC)temp
F
wind
direction
speed
knots
gust
knots
rain 1hr
in
rain 24hr
in
rain mn
in
humidity
%
barometer
mb
20260506044607 75 160 0.0 0.0 0.00 0.00 0.00 89 1007.1
20260506043011 75 160 0.0 0.0 0.00 0.00 0.00 89 1007.1
20260506041610 75 200 0.0 0.0 0.00 0.00 0.00 88 1006.8
20260506040110 75 206 0.0 0.0 0.00 0.00 0.00 88 1007.1
20260506034515 75 204 0.0 0.0 0.00 0.00 0.00 87 1006.8
20260506033003 76 164 0.0 0.0 0.00 0.00 0.00 87 1007.0
20260506031616 76 164 0.0 0.0 0.00 0.00 0.00 87 1007.1
20260506030012 76 164 0.0 0.0 0.00 0.00 0.00 86 1007.0
20260506024516 76 164 0.0 0.0 0.00 0.00 0.00 85 1006.7
20260506023121 77 164 0.0 0.0 0.00 0.00 0.00 84 1006.4
20260506021622 77 164 0.0 0.0 0.00 0.00 0.00 83 1006.3
20260506020107 78 164 0.0 0.0 0.00 0.00 0.00 82 1006.2
20260506014615 78 164 0.0 0.0 0.00 0.00 0.00 81 1006.1
20260506013019 78 164 0.0 0.9 0.00 0.00 0.00 81 1006.0
20260506011524 79 164 0.0 0.9 0.00 0.00 0.00 80 1005.6
20260506010007 79 164 0.0 0.9 0.00 0.00 0.00 79 1005.1
20260506004513 80 164 0.0 1.7 0.00 0.00 0.00 78 1005.1
20260506003021 81 193 0.0 0.0 0.00 0.00 0.00 77 1005.1
20260506000012 81 179 0.0 1.7 0.00 0.00 0.00 75 1005.1
20260505234508 82 166 0.0 1.7 0.00 0.00 0.00 74 1005.0
20260505233113 82 162 0.0 1.7 0.00 0.00 0.00 74 1005.0
20260505231532 83 199 0.9 3.5 0.00 0.00 0.00 73 1004.8
20260505230023 84 155 0.0 1.7 0.00 0.00 0.00 72 1004.7
20260505224517 84 158 0.0 0.9 0.00 0.00 0.00 73 1004.8
20260505221508 84 180 0.9 3.5 0.00 0.00 0.00 71 1005.1
20260505220009 85 171 0.0 0.9 0.00 0.00 0.00 71 1005.2
20260505214511 84 172 0.0 0.9 0.00 0.00 0.00 73 1005.4
20260505213016 84 131 0.0 1.7 0.00 0.00 0.00 73 1005.3
20260505211607 84 185 0.0 1.7 0.00 0.00 0.00 70 1005.3
20260505210106 85 154 0.0 3.5 0.00 0.00 0.00 70 1005.5
20260505204514 84 160 0.0 4.3 0.00 0.00 0.00 70 1005.2
20260505203014 85 183 0.0 6.1 0.00 0.00 0.00 70 1005.5
20260505201608 84 199 1.7 6.1 0.00 0.00 0.00 69 1005.7
20260505200022 84 152 0.0 3.5 0.00 0.00 0.00 73 1005.9
20260505194516 82 184 0.9 3.5 0.00 0.00 0.00 73 1006.2
20260505193020 81 158 0.0 3.5 0.00 0.00 0.00 73 1006.4
20260505191522 82 155 0.0 3.5 0.00 0.00 0.00 72 1006.5
20260505190109 81 147 1.7 9.6 0.00 0.00 0.00 73 1006.5
20260505184526 81 161 1.7 7.0 0.00 0.00 0.00 74 1006.6
20260505183015 81 183 0.0 3.5 0.00 0.00 0.00 74 1006.4
20260505181505 82 172 0.0 3.5 0.00 0.00 0.00 74 1006.5
20260505180104 79 186 0.0 4.3 0.00 0.00 0.00 76 1006.6
20260505174606 79 160 1.7 4.3 0.00 0.00 0.00 76 1006.7
20260505173019 78 142 0.0 4.3 0.00 0.00 0.00 78 1006.9
20260505171515 77 132 0.0 3.5 0.00 0.00 0.00 79 1007.0
20260505170016 76 161 0.0 1.7 0.00 0.00 0.00 81 1007.1
20260505164511 75 160 0.0 4.3 0.00 0.00 0.00 81 1007.2
20260505163108 75 137 0.0 3.5 0.00 0.00 0.00 82 1007.6
20260505161520 74 133 0.9 2.6 0.00 0.00 0.00 83 1007.5
20260505160117 74 166 0.0 3.5 0.00 0.00 0.00 83 1007.5
20260505153021 73 122 0.0 1.7 0.00 0.00 0.00 85 1007.3
20260505151619 72 164 0.0 1.7 0.00 0.00 0.00 86 1007.6
20260505150106 71 46 0.0 3.5 0.00 0.00 0.00 87 1007.4
20260505140120 70 197 0.0 0.0 0.00 0.00 0.00 88 1007.5
20260505124607 67 70 0.0 0.0 0.00 0.00 0.00 90 1007.3
20260505123011 67 70 0.0 0.0 0.00 0.00 0.00 90 1007.2
20260505121514 66 332 0.0 0.0 0.00 0.00 0.00 90 1006.9
20260505120116 66 332 0.0 0.0 0.00 0.00 0.00 91 1006.9
20260505114603 66 332 0.0 0.0 0.00 0.00 0.00 91 1006.9
20260505113105 65 318 0.0 0.0 0.00 0.00 0.00 91 1006.7
20260505111605 65 58 0.0 0.0 0.00 0.00 0.00 90 1006.7
20260505101508 66 74 0.0 0.0 0.00 0.00 0.00 88 1006.8
20260505100010 66 75 0.0 0.0 0.00 0.00 0.00 87 1006.9
20260505094609 66 74 0.0 0.0 0.00 0.00 0.00 87 1007.1
20260505093020 67 74 0.0 0.0 0.00 0.00 0.00 86 1007.5
20260505091518 67 74 0.0 1.7 0.00 0.00 0.00 86 1007.5
20260505090108 67 58 0.0 0.9 0.00 0.00 0.00 86 1007.5
20260505084511 67 29 0.0 0.0 0.00 0.00 0.00 85 1007.4
20260505083009 67 31 0.0 0.0 0.00 0.00 0.00 85 1007.5
20260505081510 67 12 0.0 0.0 0.00 0.00 0.00 85 1007.6
20260505080110 66 12 0.0 0.0 0.00 0.00 0.00 85 1007.9
20260505074520 66 12 0.0 0.0 0.00 0.00 0.00 85 1007.9
20260505073016 66 12 0.0 0.0 0.00 0.00 0.00 84 1007.9
20260505071620 67 12 0.0 0.0 0.00 0.00 0.00 82 1007.9
20260505070016 67 12 0.0 0.0 0.00 0.00 0.00 81 1008.4
20260505064517 68 33 0.0 0.0 0.00 0.00 0.00 81 1008.4
20260505063120 68 39 0.0 0.0 0.00 0.00 0.00 81 1008.5
20260505061506 68 29 0.0 0.0 0.00 0.00 0.00 80 1008.8
20260505060011 68 9 0.0 0.0 0.00 0.00 0.00 80 1008.9